• In United Kingdom
  • List of Countries
  • For 7 days
  • Water Temperature
  • Satellite Maps
  • Weather Map
  • Weather Widgets
  • user-avatar
    Login

    Hourly Weather Ngozi

    Today, 24 September, Monday

    Time Temperature Precipitation Wind Pressure Humidity
    00:00 +17°C° 0 mm 0 mps 618 mmHg 62%
    01:00 +16°C° 0 mm 0 mps 618 mmHg 64%
    02:00 +16°C° 0 mm 0 mps 617 mmHg 67%
    03:00 +16°C° 0 mm 0 mps 617 mmHg 69%
    04:00 +15°C° 0 mm 0 mps 617 mmHg 70%
    05:00 +15°C° 0 mm 0 mps 617 mmHg 72%
    06:00 +19°C° 0 mm 1 mps 618 mmHg 65%
    07:00 +21°C° 0 mm 1 mps 619 mmHg 57%
    08:00 +23°C° 0 mm 1 mps 620 mmHg 49%
    09:00 +25°C° 0 mm 1 mps 621 mmHg 42%
    10:00 +27°C° 0 mm 2 mps 621 mmHg 36%
    11:00 +29°C° 0 mm 2 mps 622 mmHg 29%
    12:00 +29°C° 0 mm 2 mps 621 mmHg 29%
    13:00 +29°C° 0 mm 2 mps 620 mmHg 28%
    14:00 +29°C° 0 mm 2 mps 619 mmHg 28%
    15:00 +28°C° 0 mm 2 mps 619 mmHg 29%
    16:00 +28°C° 0 mm 2 mps 619 mmHg 31%
    17:00 +27°C° 0 mm 2 mps 619 mmHg 32%
    18:00 +25°C° 0 mm 1 mps 619 mmHg 37%
    19:00 +23°C° 0 mm 1 mps 618 mmHg 41%
    20:00 +19°C° 0 mm 0 mps 618 mmHg 46%
    21:00 +19°C° 0 mm 0 mps 618 mmHg 48%
    22:00 +18°C° 0 mm 0 mps 618 mmHg 49%
    23:00 +17°C° 0 mm 0 mps 618 mmHg 51%

    Tomorrow, 25 September, Tuesday

    Time Temperature Precipitation Wind Pressure Humidity
    00:00 +17°C° 0 mm 0 mps 618 mmHg 52%
    01:00 +19°C° 0 mm 1 mps 617 mmHg 54%
    02:00 +18°C° 0 mm 1 mps 617 mmHg 55%
    03:00 +18°C° 0 mm 1 mps 617 mmHg 56%
    04:00 +18°C° 0 mm 1 mps 617 mmHg 56%
    05:00 +16°C° 0 mm 1 mps 617 mmHg 57%
    06:00 +19°C° 0 mm 1 mps 618 mmHg 52%
    07:00 +21°C° 0 mm 1 mps 619 mmHg 47%
    08:00 +23°C° 0 mm 1 mps 620 mmHg 42%
    09:00 +25°C° 0 mm 1 mps 621 mmHg 37%
    10:00 +27°C° 0 mm 2 mps 622 mmHg 33%
    11:00 +29°C° 0 mm 2 mps 622 mmHg 29%
    12:00 +29°C° 0 mm 2 mps 621 mmHg 28%
    13:00 +29°C° 0 mm 2 mps 621 mmHg 27%
    14:00 +30°C° 0 mm 2 mps 620 mmHg 26%
    15:00 +29°C° 0 mm 2 mps 619 mmHg 28%
    16:00 +28°C° 0 mm 2 mps 619 mmHg 31%
    17:00 +27°C° 0 mm 2 mps 618 mmHg 33%
    18:00 +25°C° 0 mm 1 mps 618 mmHg 38%
    19:00 +23°C° 0 mm 1 mps 618 mmHg 42%
    20:00 +19°C° 0 mm 0 mps 618 mmHg 47%
    21:00 +19°C° 0 mm 0 mps 618 mmHg 48%
    22:00 +20°C° 0 mm 1 mps 618 mmHg 50%
    23:00 +20°C° 0 mm 1 mps 619 mmHg 51%

    Day after tomorrow, 26 September, Wednesday

    Time Temperature Precipitation Wind Pressure Humidity
    00:00 +19°C° 0 mm 1 mps 618 mmHg 52%
    01:00 +19°C° 0 mm 1 mps 617 mmHg 54%
    02:00 +18°C° 0 mm 1 mps 616 mmHg 55%
    03:00 +18°C° 0 mm 1 mps 616 mmHg 55%
    04:00 +18°C° 0 mm 1 mps 617 mmHg 55%
    05:00 +18°C° 0 mm 1 mps 617 mmHg 55%
    06:00 +20°C° 0 mm 1 mps 618 mmHg 51%
    07:00 +21°C° 0 mm 1 mps 619 mmHg 46%
    08:00 +23°C° 0 mm 2 mps 620 mmHg 42%
    09:00 +25°C° 0 mm 2 mps 621 mmHg 38%
    10:00 +28°C° 0 mm 2 mps 622 mmHg 34%
    11:00 +30°C° 0 mm 2 mps 622 mmHg 29%
    12:00 +29°C° 0 mm 2 mps 621 mmHg 30%
    13:00 +28°C° 0 mm 2 mps 620 mmHg 32%
    14:00 +28°C° 0 mm 2 mps 619 mmHg 33%
    15:00 +27°C° 0 mm 2 mps 619 mmHg 33%
    16:00 +27°C° 0 mm 2 mps 619 mmHg 34%
    17:00 +27°C° 0 mm 1 mps 619 mmHg 35%
    18:00 +25°C° 0 mm 1 mps 618 mmHg 39%
    19:00 +24°C° 0 mm 1 mps 618 mmHg 43%
    20:00 +20°C° 0 mm 0 mps 618 mmHg 47%
    21:00 +19°C° 0 mm 0 mps 618 mmHg 48%
    22:00 +19°C° 0 mm 0 mps 618 mmHg 49%
    23:00 +18°C° 0 mm 0 mps 618 mmHg 51%

    27 September, Thursday

    Time Temperature Precipitation Wind Pressure Humidity
    00:00 +20°C° 0 mm 1 mps 618 mmHg 53%
    01:00 +19°C° 0 mm 1 mps 617 mmHg 54%
    02:00 +18°C° 0 mm 1 mps 616 mmHg 56%
    03:00 +18°C° 0 mm 1 mps 616 mmHg 57%
    04:00 +16°C° 0 mm 0 mps 617 mmHg 58%
    05:00 +16°C° 0 mm 0 mps 617 mmHg 59%
    06:00 +20°C° 0 mm 1 mps 618 mmHg 53%
    07:00 +22°C° 0 mm 1 mps 619 mmHg 47%
    08:00 +24°C° 0 mm 2 mps 621 mmHg 40%
    09:00 +26°C° 0 mm 2 mps 621 mmHg 37%
    10:00 +28°C° 0 mm 3 mps 621 mmHg 33%
    11:00 +30°C° 0 mm 3 mps 622 mmHg 29%
    12:00 +29°C° 0 mm 3 mps 620 mmHg 31%
    13:00 +28°C° 0 mm 3 mps 619 mmHg 33%
    14:00 +28°C° 0 mm 3 mps 618 mmHg 35%
    15:00 +27°C° 0.1 mm 2 mps 618 mmHg 37%
    16:00 +27°C° 0.1 mm 2 mps 618 mmHg 39%
    17:00 +26°C° 0.1 mm 2 mps 619 mmHg 42%
    18:00 +24°C° 0.2 mm 2 mps 618 mmHg 48%
    19:00 +22°C° 0.2 mm 1 mps 618 mmHg 55%
    20:00 +21°C° 0.2 mm 1 mps 618 mmHg 62%
    21:00 +20°C° 0.2 mm 1 mps 618 mmHg 66%
    22:00 +20°C° 0.2 mm 1 mps 618 mmHg 70%
    23:00 +19°C° 0.2 mm 1 mps 618 mmHg 74%

    28 September, Friday

    Time Temperature Precipitation Wind Pressure Humidity
    00:00 +19°C° 0.2 mm 1 mps 618 mmHg 76%
    01:00 +19°C° 0.2 mm 1 mps 617 mmHg 78%
    02:00 +19°C° 0.2 mm 1 mps 617 mmHg 80%
    03:00 +16°C° 0.1 mm 0 mps 617 mmHg 81%
    04:00 +16°C° 0.1 mm 0 mps 617 mmHg 81%
    05:00 +16°C° 0.1 mm 0 mps 617 mmHg 82%
    06:00 +17°C° 0.1 mm 0 mps 618 mmHg 76%
    07:00 +21°C° 0.1 mm 1 mps 619 mmHg 70%
    08:00 +22°C° 0.1 mm 1 mps 620 mmHg 64%
    09:00 +23°C° 0.1 mm 2 mps 621 mmHg 58%
    10:00 +25°C° 0.1 mm 2 mps 621 mmHg 52%
    11:00 +26°C° 0.1 mm 2 mps 621 mmHg 46%
    12:00 +26°C° 0.2 mm 2 mps 620 mmHg 46%
    13:00 +26°C° 0.2 mm 2 mps 619 mmHg 47%
    14:00 +26°C° 0.2 mm 2 mps 618 mmHg 47%
    15:00 +25°C° 0.3 mm 2 mps 618 mmHg 48%
    16:00 +25°C° 0.3 mm 1 mps 618 mmHg 49%
    17:00 +25°C° 0.3 mm 1 mps 618 mmHg 50%
    18:00 +23°C° 0.1 mm 1 mps 618 mmHg 55%
    19:00 +22°C° 0.1 mm 1 mps 618 mmHg 60%
    20:00 +20°C° 0.1 mm 1 mps 618 mmHg 64%
    21:00 +20°C° 0 mm 1 mps 618 mmHg 66%
    22:00 +19°C° 0 mm 1 mps 618 mmHg 68%
    23:00 +19°C° 0 mm 1 mps 617 mmHg 70%

    29 September, Saturday

    Time Temperature Precipitation Wind Pressure Humidity
    00:00 +18°C° 0 mm 1 mps 617 mmHg 71%
    01:00 +18°C° 0 mm 1 mps 617 mmHg 71%
    02:00 +18°C° 0 mm 1 mps 616 mmHg 72%
    03:00 +15°C° 0 mm 0 mps 616 mmHg 73%
    04:00 +15°C° 0 mm 0 mps 617 mmHg 74%
    05:00 +15°C° 0 mm 0 mps 617 mmHg 75%
    06:00 +17°C° 0 mm 0 mps 618 mmHg 69%
    07:00 +21°C° 0 mm 1 mps 619 mmHg 64%
    08:00 +23°C° 0 mm 1 mps 620 mmHg 58%
    09:00 +24°C° 0.4 mm 1 mps 620 mmHg 55%
    10:00 +25°C° 0.4 mm 2 mps 620 mmHg 52%
    11:00 +27°C° 0.4 mm 2 mps 620 mmHg 49%
    12:00 +27°C° 0.6 mm 2 mps 620 mmHg 49%
    13:00 +26°C° 0.6 mm 2 mps 619 mmHg 49%
    14:00 +26°C° 0.6 mm 2 mps 618 mmHg 49%
    15:00 +26°C° 0.9 mm 2 mps 618 mmHg 51%
    16:00 +26°C° 0.9 mm 2 mps 618 mmHg 52%
    17:00 +25°C° 0.9 mm 1 mps 618 mmHg 54%
    18:00 +24°C° 0.9 mm 1 mps 618 mmHg 59%
    19:00 +22°C° 0.9 mm 1 mps 618 mmHg 64%
    20:00 +19°C° 0.9 mm 0 mps 617 mmHg 69%
    21:00 +20°C° 0.3 mm 1 mps 617 mmHg 71%
    22:00 +20°C° 0.3 mm 1 mps 617 mmHg 73%
    23:00 +19°C° 0.3 mm 1 mps 617 mmHg 76%
    Show more

    3.3.7123123